Regional Weather Roundup
Issued by NWS

Home | Current Version | Previous Version | Text Only | Print | Product List | Glossary Off
Versions: 1 2 3 4 5 6 7 8 9 10 11 12 13 14 15 16 17 18 19 20 21 22 23 24 25 26 27 28 29 30 31 32 33 34 35 36 37 38 39 40 41 42 43 44 45 46 47 48 49 50

000
ASUS43 KMPX 232001
RWRMN
WEATHER ROUNDUP FOR MINNESOTA
NATIONAL WEATHER SERVICE TWIN CITIES/CHANHASSEN MN
300 PM CDT WED AUG 23 2017


NOTE: "FAIR" INDICATES FEW OR NO CLOUDS BELOW 12,000 FEET WITH NO
SIGNIFICANT WEATHER AND/OR OBSTRUCTIONS TO VISIBILITY. N/A MEANS
CURRENT SKY AND/OR WEATHER CONDITIONS ARE NOT AVAILABLE.

MNZ060>063-068>070-232100-
   Twin Cities Metro

CITY           SKY/WX    TMP DP  RH WIND       PRES   REMARKS
TWIN CITIES    MOSUNNY   76  52  43 N14G21    30.06F
ST PAUL        MOSUNNY   74  53  48 N7        30.07F
CRYSTAL        MOSUNNY   73  48  41 NW9       30.05F
BLAINE         MOSUNNY   75  52  43 N7        30.07F
LAKEVILLE      SUNNY     73  50  43 NW12G18   30.07F
EDEN PRAIRIE   MOSUNNY   76  52  43 NW10      30.06F
SOUTH ST PAUL  MOSUNNY   74  49  40 NW13G18   30.06F
LAKE ELMO      PTSUNNY   72  54  53 W9        30.08F
$$
MNZ001>005-007-008-013>017-022>024-027-028-232100-
   Northwest Minnesota

CITY           SKY/WX    TMP DP  RH WIND       PRES   REMARKS
BEMIDJI        SUNNY     66  48  52 NE7       30.08F
HALLOCK        MOSUNNY   64  54  68 E8        30.07R
ROSEAU           N/A     61  54  77 NE5       30.11S
WARROAD        MOSUNNY   59  54  82 N5        30.12R
CROOKSTON      CLOUDY    72  48  43 E5        30.05F
FOSSTON        CLOUDY    72  54  53 NE7       30.08S
DETROIT LAKES  SUNNY     72  50  46 CALM      30.07F
MOORHEAD       SUNNY     75  48  38 SE7       30.04F
PARK RAPIDS    PTSUNNY   73  49  42 CALM      30.06F
MAHNOMEN       FAIR      70  48  46 W3        30.06F
$$
MNZ006-009>011-018-025>026-232100-
   North Central Minnesota

CITY           SKY/WX    TMP DP  RH WIND       PRES   REMARKS
BAUDETTE       CLOUDY    61  51  70 NW6       30.10S
FLAG ISLAND    LGT RAIN  59  46  63 CALM      30.11R
INTL FALLS     CLOUDY    65  48  54 NE6       30.08F
WASKISH        CLOUDY    63  54  72 W3        30.08F
BIG FORK       CLOUDY    66  46  48 CALM      30.08F
LONGVILLE      SUNNY     70  48  46 NW3       30.07F
GRAND RAPIDS   MOSUNNY   65  49  56 CALM      30.10F
CRANE LAKE     SUNNY     63  46  55 NE6       30.10S
ORR            MOSUNNY   64  45  48 NW5       30.06F
COOK           CLOUDY    64  46  52 NW6       30.08F
WALKER         FAIR      67  51  57 E6        30.07F
$$
MNZ012-019>021-037-232100-
   Northeast Minnesota

CITY           SKY/WX    TMP DP  RH WIND       PRES   REMARKS
DULUTH         MOSUNNY   65  48  54 N10       30.07S
ELY            SUNNY     63  43  48 W6        30.07F
HIBBING        CLOUDY    64  46  52 CALM      30.07F
EVELETH        CLOUDY    63  33  32 W8        30.09F
DULUTH HARBOR  CLOUDY    66  52  59 CALM      30.07S
TWO HARBORS    MOSUNNY   70  52  52 CALM      30.05F
GRAND MARAIS     N/A     69  36  29 MISG      30.04F
$$
MNZ029>031-032-039>041-046>048-054>057-064-232100-
   West Central Minnesota

CITY           SKY/WX    TMP DP  RH WIND       PRES   REMARKS
FERGUS FALLS   SUNNY     73  50  43 CALM      30.04F
WHEATON        SUNNY     75  48  38 SE3       30.06F
MORRIS         SUNNY     77  50  38 SE5       30.05F
ALEXANDRIA     SUNNY     74  49  41 SW6       30.09F
ELBOW LAKE     FAIR      73  51  45 SE5       30.06F HAZE
WADENA         SUNNY     72  50  46 W3        30.07S
GLENWOOD       SUNNY     75  48  38 CALM      30.08F
APPLETON       SUNNY     75  45  33 CALM      30.06F
BENSON         SUNNY     77  46  33 SW6       30.08F
ORTONVILLE     SUNNY     75  48  38 MISG      30.05F
MADISON        SUNNY     79  54  41 SE5       30.06F
WILLMAR        FAIR      75  50  41 SW5       30.09F
$$
MNZ033>034-036-042>043-049>051-058-059-232100-
   Central Minnesota

CITY           SKY/WX    TMP DP  RH WIND       PRES   REMARKS
ST CLOUD       SUNNY     74  51  44 N9        30.07F
SAUK CENTRE    FAIR      73  49  42 CALM      30.08F
PAYNESVILLE    SUNNY     75  49  40 NW7       30.08F
PINE RIVER     SUNNY     66  48  52 CALM      30.10F
BRAINERD       SUNNY     68  50  52 CALM      30.07F
STAPLES        SUNNY     73  45  35 NW3       30.07F
LONG PRAIRIE   FAIR      72  50  46 CALM      30.08F
LITTLE FALLS     N/A    N/A N/A N/A NW6         N/A
LITCHFIELD     SUNNY     75  52  43 W5        30.09F
BUFFALO        MOSUNNY   74  50  41 W9        30.08F
MAPLE LAKE     SUNNY     75  54  47 W6        30.08F
HUTCHINSON     MOSUNNY   74  53  47 W3        30.09F
$$
MNZ037-044-045-052-053-232100-
   East Central Minnesota

CITY           SKY/WX    TMP DP  RH WIND       PRES   REMARKS
PRINCETON      MOSUNNY   73  54  49 NW9       30.07F
MORA           MOSUNNY   70  50  49 W8        30.09F
CAMBRIDGE      SUNNY     72  54  53 N3        30.08F
RUSH CITY      PTSUNNY   70  49  47 N6        30.08S
MOOSE LAKE     MOSUNNY   70  46  43 N5        30.06S
HINCKLEY       MOCLDY    68  50  52 N7        30.08S
CLOQUET        MOSUNNY   66  45  45 N5        30.07F
MCGREGOR       MOSUNNY   70  46  43 N7        30.08F
$$
MNZ071>073-080-081-089-090-097-098-232100-
   Southwest Minnesota

CITY           SKY/WX    TMP DP  RH WIND       PRES   REMARKS
MONTEVIDEO     SUNNY     81  50  34 CALM      30.07F
GRANITE FALLS  SUNNY     76  53  44 SE5       30.09F
CANBY          CLOUDY    75  50  41 CALM      30.07F
MARSHALL       MOSUNNY   75  51  43 SE5       30.08F
REDWOOD FALLS  SUNNY     76  46  34 CALM      30.07F
OLIVIA         SUNNY     73  48  40 CALM      30.08F
PIPESTONE      MOSUNNY   75  57  53 S7        30.08F
WINDOM         SUNNY     75  46  35 CALM      30.10F
WORTHINGTON    PTSUNNY   75  51  43 CALM      30.10F
JACKSON        MOSUNNY   73  50  43 CALM      30.11F
TRACY          MOSUNNY   75  51  43 CALM      30.09F
SLAYTON        SUNNY     74  47  38 CALM      30.11F
$$
MNZ065>067-074>077-082>085-091>093-232100-
   South Central Minnesota

CITY           SKY/WX    TMP DP  RH WIND       PRES   REMARKS
MANKATO        SUNNY     74  49  41 NW6       30.09F
NEW ULM        SUNNY     73  48  40 CALM      30.08F
ST JAMES       SUNNY     73  48  40 NE3       30.10F
FAIRMONT       SUNNY     74  49  41 VRB5      30.10F
GLENCOE        MOSUNNY   75  56  51 W6        30.08F
FARIBAULT      SUNNY     73  54  49 W7        30.09F
OWATONNA       SUNNY     73  55  53 NW9       30.09F
WASECA         MOSUNNY   72  50  46 NW8       30.11F
ALBERT LEA     SUNNY     75  52  43 NW8       30.10F
$$
MNZ078>079-086>088-094>096-232100-
   Southeast Minnesota

CITY           SKY/WX    TMP DP  RH WIND       PRES   REMARKS
ROCHESTER      MOSUNNY   72  54  53 NW13G21   30.09F
RED WING       MOSUNNY   75  48  38 NW5       30.06F
STANTON        SUNNY     74  52  44 NW9G16    30.07S
DODGE CENTER   MOSUNNY   72  48  43 W13       30.10S
WINONA         SUNNY     73  54  49 N10       30.07F
AUSTIN         SUNNY     72  48  43 NW10      30.09F
PRESTON        MOSUNNY   71  49  46 NW10G18   30.09F
$$
ABBREVIATIONS USED IN REMARKS
   TC - TEMPERATURES IN CELSIUS
  WCI - WIND CHILL INDEX
   HX - HEAT INDEX
  VSB - VISIBILITY
$$




USA.gov is the U.S. government's official web portal to all federal, state and local government web resources and services.